Time,TemperatureF,DewpointF,PressureIn,WindDirection,WindDirectionDegrees,WindSpeedMPH,WindSpeedGustMPH,Humidity,HourlyPrecipIn,Conditions,Clouds,dailyrainin,SolarRadiationWatts/m^2,SoftwareType,DateUTC
2013-07-14 00:02:00,76.0,76.0,-100.00,SSE,160,0.0,5.0,100,0.00,,,0.00,0.000000,,2013-07-14 04:02:00,
2013-07-14 00:11:00,76.0,76.0,-100.00,SSE,160,0.0,5.0,100,0.00,,,0.00,0.000000,,2013-07-14 04:11:00,
2013-07-14 00:22:00,76.0,76.0,-100.00,SSE,160,0.0,5.0,100,0.00,,,0.00,0.000000,,2013-07-14 04:22:00,
2013-07-14 00:54:00,75.0,75.0,-100.00,ESE,118,3.0,4.0,100,0.00,,,0.00,0.000000,,2013-07-14 04:54:00,
2013-07-14 01:02:00,75.0,75.0,-100.00,ESE,118,3.0,4.0,100,0.00,,,0.00,0.000000,,2013-07-14 05:02:00,
2013-07-14 01:11:00,75.0,75.0,-100.00,ESE,118,3.0,4.0,100,0.00,,,0.00,0.000000,,2013-07-14 05:11:00,
2013-07-14 01:23:00,75.0,75.0,-100.00,ESE,118,3.0,4.0,100,0.00,,,0.00,0.000000,,2013-07-14 05:23:00,
2013-07-14 01:53:00,75.0,75.0,-100.00,SW,236,1.0,6.0,100,0.00,,,0.00,0.000000,,2013-07-14 05:53:00,
2013-07-14 02:01:00,75.0,75.0,-100.00,SW,236,1.0,6.0,100,0.00,,,0.00,0.000000,,2013-07-14 06:01:00,
2013-07-14 02:12:00,75.0,75.0,-100.00,SW,236,1.0,6.0,100,0.00,,,0.00,0.000000,,2013-07-14 06:12:00,
2013-07-14 02:22:00,75.0,75.0,-100.00,SW,236,1.0,6.0,100,0.00,,,0.00,0.000000,,2013-07-14 06:22:00,
2013-07-14 02:53:00,74.0,74.0,-100.00,WSW,250,0.0,4.0,100,0.00,,,0.00,0.000000,,2013-07-14 06:53:00,
2013-07-14 03:02:00,74.0,74.0,-100.00,WSW,250,0.0,4.0,100,0.00,,,0.00,0.000000,,2013-07-14 07:02:00,
2013-07-14 03:12:00,74.0,74.0,-100.00,WSW,250,0.0,4.0,100,0.00,,,0.00,0.000000,,2013-07-14 07:12:00,
2013-07-14 03:22:00,74.0,74.0,-100.00,WSW,250,0.0,4.0,100,0.00,,,0.00,0.000000,,2013-07-14 07:22:00,
2013-07-14 03:53:00,74.0,74.0,-100.00,WSW,247,2.0,5.0,100,0.00,,,0.00,0.000000,,2013-07-14 07:53:00,
2013-07-14 04:01:00,74.0,74.0,-100.00,WSW,247,2.0,5.0,100,0.00,,,0.00,0.000000,,2013-07-14 08:01:00,
2013-07-14 04:11:00,74.0,74.0,-100.00,WSW,247,2.0,5.0,100,0.00,,,0.00,0.000000,,2013-07-14 08:11:00,
2013-07-14 04:22:00,74.0,74.0,-100.00,WSW,247,2.0,5.0,100,0.00,,,0.00,0.000000,,2013-07-14 08:22:00,
2013-07-14 04:53:00,75.0,75.0,-100.00,SW,220,2.0,6.0,100,0.00,,,0.00,0.000000,,2013-07-14 08:53:00,
2013-07-14 05:01:00,75.0,75.0,-100.00,SW,220,2.0,6.0,100,0.00,,,0.00,0.000000,,2013-07-14 09:01:00,
2013-07-14 05:11:00,75.0,75.0,-100.00,SW,220,2.0,6.0,100,0.00,,,0.00,0.000000,,2013-07-14 09:11:00,
2013-07-14 05:22:00,75.0,75.0,-100.00,SW,220,2.0,6.0,100,0.00,,,0.00,0.000000,,2013-07-14 09:22:00,
2013-07-14 05:53:00,75.0,75.0,-100.00,WSW,237,2.0,6.0,100,0.00,,,0.00,0.000000,,2013-07-14 09:53:00,
2013-07-14 06:01:00,75.0,75.0,-100.00,WSW,237,2.0,6.0,100,0.00,,,0.00,0.000000,,2013-07-14 10:01:00,
2013-07-14 06:12:00,75.0,75.0,-100.00,WSW,237,2.0,6.0,100,0.00,,,0.00,0.000000,,2013-07-14 10:12:00,
2013-07-14 06:22:00,75.0,75.0,-100.00,WSW,237,2.0,6.0,100,0.00,,,0.00,0.000000,,2013-07-14 10:22:00,
2013-07-14 06:53:00,75.0,75.0,-100.00,SW,227,2.0,7.0,100,0.00,,,0.00,9.000000,,2013-07-14 10:53:00,
2013-07-14 07:02:00,75.0,75.0,-100.00,SW,227,2.0,7.0,100,0.00,,,0.00,9.000000,,2013-07-14 11:02:00,
2013-07-14 07:11:00,75.0,75.0,-100.00,SW,227,2.0,7.0,100,0.00,,,0.00,9.000000,,2013-07-14 11:11:00,
2013-07-14 07:22:00,75.0,75.0,-100.00,SW,227,2.0,7.0,100,0.00,,,0.00,9.000000,,2013-07-14 11:22:00,
2013-07-14 07:53:00,76.0,76.0,-100.00,SSE,154,2.0,6.0,100,0.00,,,0.00,66.000000,,2013-07-14 11:53:00,
2013-07-14 08:02:00,76.0,76.0,-100.00,SSE,154,2.0,6.0,100,0.00,,,0.00,66.000000,,2013-07-14 12:02:00,
2013-07-14 08:12:00,76.0,76.0,-100.00,SSE,154,2.0,6.0,100,0.00,,,0.00,66.000000,,2013-07-14 12:12:00,
2013-07-14 08:22:00,76.0,76.0,-100.00,SSE,154,2.0,6.0,100,0.00,,,0.00,66.000000,,2013-07-14 12:22:00,
2013-07-14 08:53:00,78.0,78.0,-100.00,SW,227,2.0,5.0,100,0.00,,,0.00,152.000000,,2013-07-14 12:53:00,
2013-07-14 09:01:00,78.0,78.0,-100.00,SW,227,2.0,5.0,100,0.00,,,0.00,152.000000,,2013-07-14 13:01:00,
2013-07-14 09:11:00,78.0,78.0,-100.00,SW,227,2.0,5.0,100,0.00,,,0.00,152.000000,,2013-07-14 13:11:00,
2013-07-14 09:22:00,78.0,78.0,-100.00,SW,227,2.0,5.0,100,0.00,,,0.00,152.000000,,2013-07-14 13:22:00,
2013-07-14 09:53:00,82.0,81.0,-100.00,SSW,211,1.0,5.0,98,0.00,,,0.00,304.000000,,2013-07-14 13:53:00,
2013-07-14 10:02:00,82.0,81.0,-100.00,SSW,211,1.0,5.0,98,0.00,,,0.00,304.000000,,2013-07-14 14:02:00,
2013-07-14 17:53:00,85.0,80.0,-100.00,ESE,111,8.0,14.0,84,0.00,,,0.00,560.000000,,2013-07-14 21:53:00,
2013-07-14 18:02:00,85.0,80.0,-100.00,ESE,111,8.0,14.0,84,0.00,,,0.00,560.000000,,2013-07-14 22:02:00,
2013-07-14 18:11:00,85.0,80.0,-100.00,ESE,111,8.0,14.0,84,0.00,,,0.00,560.000000,,2013-07-14 22:11:00,
2013-07-14 18:22:00,85.0,80.0,-100.00,ESE,111,8.0,14.0,84,0.00,,,0.00,560.000000,,2013-07-14 22:22:00,
2013-07-14 18:53:00,82.0,79.0,-100.00,SE,142,2.0,11.0,90,0.00,,,0.00,183.000000,,2013-07-14 22:53:00,
2013-07-14 19:02:00,82.0,79.0,-100.00,SE,142,2.0,11.0,90,0.00,,,0.00,183.000000,,2013-07-14 23:02:00,
2013-07-14 19:11:00,82.0,79.0,-100.00,SE,142,2.0,11.0,90,0.00,,,0.00,183.000000,,2013-07-14 23:11:00,
2013-07-14 19:22:00,82.0,79.0,-100.00,SE,142,2.0,11.0,90,0.00,,,0.00,183.000000,,2013-07-14 23:22:00,
2013-07-14 19:53:00,81.0,81.0,-100.00,South,181,2.0,8.0,99,0.00,,,0.00,122.000000,,2013-07-14 23:53:00,
2013-07-14 20:02:00,81.0,81.0,-100.00,South,181,2.0,8.0,99,0.00,,,0.00,122.000000,,2013-07-15 00:02:00,
2013-07-14 20:11:00,81.0,81.0,-100.00,South,181,2.0,8.0,99,0.00,,,0.00,122.000000,,2013-07-15 00:11:00,
2013-07-14 20:22:00,81.0,81.0,-100.00,South,181,2.0,8.0,99,0.00,,,0.00,122.000000,,2013-07-15 00:22:00,
2013-07-14 20:53:00,79.0,79.0,-100.00,SW,225,2.0,7.0,100,0.00,,,0.00,41.000000,,2013-07-15 00:53:00,
2013-07-14 21:01:00,79.0,79.0,-100.00,SW,225,2.0,7.0,100,0.00,,,0.00,41.000000,,2013-07-15 01:01:00,
2013-07-14 21:11:00,79.0,79.0,-100.00,SW,225,2.0,7.0,100,0.00,,,0.00,41.000000,,2013-07-15 01:11:00,
2013-07-14 21:22:00,79.0,79.0,-100.00,SW,225,2.0,7.0,100,0.00,,,0.00,41.000000,,2013-07-15 01:22:00,
2013-07-14 21:53:00,77.0,77.0,-100.00,SW,233,2.0,6.0,100,0.00,,,0.00,1.000000,,2013-07-15 01:53:00,
2013-07-14 22:02:00,77.0,77.0,-100.00,SW,233,2.0,6.0,100,0.00,,,0.00,1.000000,,2013-07-15 02:02:00,
2013-07-14 22:11:00,77.0,77.0,-100.00,SW,233,2.0,6.0,100,0.00,,,0.00,1.000000,,2013-07-15 02:11:00,
2013-07-14 22:22:00,77.0,77.0,-100.00,SW,233,2.0,6.0,100,0.00,,,0.00,1.000000,,2013-07-15 02:22:00,
2013-07-14 22:53:00,76.0,76.0,-100.00,SW,230,2.0,6.0,100,0.00,,,0.00,0.000000,,2013-07-15 02:53:00,
2013-07-14 23:02:00,76.0,76.0,-100.00,SW,230,2.0,6.0,100,0.00,,,0.00,0.000000,,2013-07-15 03:02:00,
2013-07-14 23:11:00,76.0,76.0,-100.00,SW,230,2.0,6.0,100,0.00,,,0.00,0.000000,,2013-07-15 03:11:00,
2013-07-14 23:22:00,76.0,76.0,-100.00,SW,230,2.0,6.0,100,0.00,,,0.00,0.000000,,2013-07-15 03:22:00,
2013-07-14 23:53:00,75.0,75.0,-100.00,WSW,249,1.0,5.0,100,0.00,,,0.00,0.000000,,2013-07-15 03:53:00,